Cameron, WI

1:21 AM CST on February 26, 2017 (GMT -0600)
Rice Lake Regional-Carl's

Weather History for KRPD - May, 2009

Change the Weather History Date:

Tuesday, May 19, 2009

  Actual Average Record
Temperature  
Mean Temperature 63 °F -  
Max Temperature 79 °F 63 °F 86 °F (2012)
Min Temperature 47 °F 43 °F 28 °F (2000)
Degree Days  
Heating Degree Days 2    
Growing Degree Days 13 (Base 50)    
Moisture  
Dew Point 50 °F    
Average Humidity 65    
Maximum Humidity 92    
Minimum Humidity 47    
Precipitation  
Precipitation 0.00 in - - ()
Sea Level Pressure  
Sea Level Pressure 30.03 in    
Wind  
Wind Speed 7 mph (ENE)    
Max Wind Speed 16 mph    
Max Gust Speed 21 mph    
Visibility 10 miles    
Events      
Averages and records for this station are not official NWS values.
T = Trace of Precipitation, MM = Missing Value Source: NWS Daily Summary

Daily Weather History Graph

Daily Weather History Graph

Search for Another Location

Airport or City:

Trip Planner

Search our weather history database for the weather conditions in past years. The results will help you decide how hot, cold, wet, or windy it might be!

Date:

Astronomy

May. 19, 2009 Rise Set
Actual Time 5:32 AM CDT 8:35 PM CDT
Civil Twilight 4:57 AM CDT 9:10 PM CDT
Nautical Twilight 4:11 AM CDT 9:56 PM CDT
Astronomical Twilight 3:17 AM CDT 10:51 PM CDT
Moon 2:40 AM CDT (5/19) 3:14 PM CDT (5/19)
Length of Visible Light 16h 13m
Length of Day
15h 03m
Waning Crescent, 27% of the Moon is Illuminated
May 19
Waning Crescent
May 24
New
May 30
First Quarter
Jun 7
Full
Jun 15
Last Quarter

Hourly Weather History & Observations

Time (CDT) Temp. Dew Point Humidity Pressure Visibility Wind Dir Wind Speed Gust Speed Precip Events Conditions
12:15 AM 59.7 °F 47.5 °F 64% 29.98 in 10.0 mi SSE 8.1 mph - N/A   Scattered Clouds
12:35 AM 60.1 °F 47.5 °F 63% 29.98 in 10.0 mi SE 6.9 mph - N/A   Clear
12:55 AM 60.1 °F 47.8 °F 64% 29.98 in 10.0 mi SSE 6.9 mph - N/A   Scattered Clouds
1:15 AM 61.3 °F 48.0 °F 62% 29.98 in 10.0 mi South 8.1 mph - N/A   Mostly Cloudy
1:35 AM 60.4 °F 48.4 °F 64% 29.98 in 10.0 mi South 5.8 mph - N/A   Overcast
1:55 AM 59.5 °F 48.4 °F 67% 29.98 in 10.0 mi South 8.1 mph - N/A   Scattered Clouds
2:15 AM 59.2 °F 48.7 °F 68% 29.98 in 10.0 mi SSE 4.6 mph - N/A   Mostly Cloudy
2:35 AM 58.5 °F 48.6 °F 70% 29.98 in 10.0 mi Calm Calm - N/A   Scattered Clouds
2:55 AM 59.0 °F 48.2 °F 67% 29.99 in 10.0 mi Calm Calm - N/A   Scattered Clouds
3:15 AM 55.0 °F 48.6 °F 79% 30.01 in 10.0 mi NNE 4.6 mph - N/A   Clear
3:35 AM 52.7 °F 48.4 °F 85% 30.01 in 10.0 mi North 6.9 mph - N/A   Clear
3:55 AM 51.6 °F 47.5 °F 86% 30.02 in 10.0 mi North 4.6 mph - N/A   Clear
4:15 AM 51.8 °F 47.5 °F 85% 30.02 in 10.0 mi Calm Calm - N/A   Scattered Clouds
4:35 AM 52.3 °F 47.5 °F 84% 30.03 in 10.0 mi Calm Calm - N/A   Scattered Clouds
4:55 AM 52.5 °F 47.1 °F 82% 30.03 in 10.0 mi ESE 3.5 mph - N/A   Clear
5:15 AM 52.7 °F 47.3 °F 82% 30.04 in 10.0 mi Calm Calm - N/A   Clear
5:35 AM 51.8 °F 46.8 °F 83% 30.04 in 10.0 mi Calm Calm - N/A   Clear
5:55 AM 48.7 °F 46.4 °F 92% 30.05 in 10.0 mi North 10.4 mph - N/A   Clear
6:15 AM 48.2 °F 44.1 °F 86% 30.06 in 10.0 mi North 10.4 mph - N/A   Clear
6:35 AM 47.5 °F 43.3 °F 86% 30.07 in 10.0 mi North 11.5 mph 16.1 mph N/A   Clear
6:55 AM 47.7 °F 42.6 °F 83% 30.08 in 10.0 mi NNE 16.1 mph 20.7 mph N/A   Clear
7:15 AM 48.6 °F 42.8 °F 80% 30.09 in 10.0 mi NNE 10.4 mph - N/A   Clear
7:35 AM 48.9 °F 42.6 °F 79% 30.10 in 10.0 mi NNE 12.7 mph - N/A   Clear
7:55 AM 50.0 °F 42.8 °F 76% 30.11 in 10.0 mi NNE 12.7 mph 17.3 mph N/A   Clear
8:15 AM 50.9 °F 43.3 °F 75% 30.12 in 10.0 mi NNE 10.4 mph - N/A   Clear
8:35 AM 52.2 °F 43.9 °F 73% 30.12 in 10.0 mi NNE 11.5 mph - N/A   Clear
8:55 AM 53.6 °F 45.0 °F 73% 30.12 in 10.0 mi NNE 11.5 mph - N/A   Clear
9:15 AM 55.4 °F 45.3 °F 69% 30.11 in 10.0 mi NNE 10.4 mph - N/A   Clear
9:35 AM 57.0 °F 46.2 °F 67% 30.11 in 10.0 mi NNE 8.1 mph - N/A   Clear
9:55 AM 58.6 °F 47.3 °F 66% 30.10 in 10.0 mi NNE 6.9 mph - N/A   Clear
10:15 AM 60.1 °F 48.0 °F 64% 30.11 in 10.0 mi North 6.9 mph - N/A   Clear
10:35 AM 61.0 °F 48.6 °F 64% 30.12 in 10.0 mi NNE 9.2 mph - N/A   Clear
10:55 AM 62.2 °F 49.3 °F 63% 30.11 in 10.0 mi NNE 8.1 mph - N/A   Clear
11:15 AM 62.6 °F 48.7 °F 60% 30.10 in 10.0 mi North 8.1 mph - N/A   Clear
11:35 AM 63.3 °F 48.7 °F 59% 30.10 in 10.0 mi North 4.6 mph - N/A   Clear
11:55 AM 63.9 °F 50.9 °F 63% 30.10 in 10.0 mi North 10.4 mph 16.1 mph N/A   Scattered Clouds
12:15 PM 64.4 °F 50.0 °F 59% 30.09 in 10.0 mi North 11.5 mph - N/A   Scattered Clouds
12:35 PM 65.1 °F 49.8 °F 58% 30.07 in 10.0 mi East 9.2 mph - N/A   Scattered Clouds
12:55 PM 67.6 °F 50.7 °F 55% 30.07 in 10.0 mi East 9.2 mph - N/A   Scattered Clouds
1:15 PM 68.5 °F 52.3 °F 56% 30.07 in 10.0 mi ESE 10.4 mph - N/A   Clear
1:35 PM 69.6 °F 52.3 °F 54% 30.07 in 10.0 mi ESE 8.1 mph 16.1 mph N/A   Clear
1:55 PM 70.2 °F 51.6 °F 52% 30.07 in 10.0 mi Calm Calm - N/A   Clear
2:15 PM 69.8 °F 53.1 °F 55% 30.06 in 10.0 mi NE 6.9 mph - N/A   Clear
2:35 PM 72.7 °F 53.1 °F 50% 30.05 in 10.0 mi East 8.1 mph - N/A   Clear
2:55 PM 73.4 °F 54.7 °F 52% 30.03 in 10.0 mi East 10.4 mph - N/A   Clear
3:15 PM 73.4 °F 54.3 °F 51% 30.02 in 10.0 mi ESE 9.2 mph - N/A   Clear
3:35 PM 75.4 °F 55.6 °F 50% 30.01 in 10.0 mi SE 9.2 mph 17.3 mph N/A   Clear
3:55 PM 75.6 °F 55.6 °F 50% 30.01 in 10.0 mi East 6.9 mph 10.4 mph N/A   Clear
4:15 PM 76.6 °F 56.1 °F 49% 30.01 in 10.0 mi ESE 6.9 mph - N/A   Clear
4:35 PM 77.0 °F 56.5 °F 49% 29.99 in 10.0 mi East 8.1 mph 17.3 mph N/A   Clear
4:55 PM 79.0 °F 58.1 °F 49% 29.98 in 10.0 mi SE 9.2 mph - N/A   Clear
5:15 PM 77.5 °F 56.5 °F 48% 29.97 in 10.0 mi ENE 10.4 mph 17.3 mph N/A   Clear
5:35 PM 78.3 °F 57.4 °F 49% 29.95 in 10.0 mi East 8.1 mph - N/A   Clear
5:55 PM 79.9 °F 58.3 °F 48% 29.93 in 10.0 mi ESE 10.4 mph - N/A   Clear
6:15 PM 79.7 °F 58.5 °F 48% 29.93 in 10.0 mi SE 11.5 mph - N/A   Clear
6:35 PM 79.9 °F 57.9 °F 47% 29.91 in 10.0 mi ESE 11.5 mph 18.4 mph N/A   Clear
6:55 PM 79.7 °F 57.9 °F 47% 29.90 in 10.0 mi ESE 15.0 mph - N/A   Clear
7:15 PM 79.0 °F 57.9 °F 48% 29.88 in 10.0 mi SE 16.1 mph - N/A   Clear
7:35 PM 78.8 °F 58.3 °F 49% 29.88 in 10.0 mi SE 12.7 mph - N/A   Clear
7:55 PM 78.1 °F 58.6 °F 51% 29.87 in 10.0 mi SE 12.7 mph 18.4 mph N/A   Clear
8:15 PM 77.0 °F 59.0 °F 54% 29.88 in 10.0 mi SE 10.4 mph - N/A   Clear
8:35 PM 76.6 °F 59.0 °F 54% 29.87 in 10.0 mi SE 10.4 mph - N/A   Clear
8:55 PM 75.6 °F 59.0 °F 56% 29.87 in 10.0 mi ESE 10.4 mph - N/A   Clear
9:15 PM 74.3 °F 58.5 °F 58% 29.88 in 10.0 mi SE 10.4 mph - N/A   Clear
9:35 PM 75.2 °F 56.5 °F 52% 29.88 in 10.0 mi SSE 12.7 mph - N/A   Clear
9:55 PM 76.1 °F 55.0 °F 48% 29.89 in 10.0 mi SSE 12.7 mph - N/A   Clear
10:15 PM 77.2 °F 54.5 °F 45% 29.89 in 10.0 mi SSE 12.7 mph 19.6 mph N/A   Clear
10:35 PM 76.3 °F 54.5 °F 47% 29.89 in 10.0 mi SSE 12.7 mph 19.6 mph N/A   Clear
10:55 PM 75.4 °F 54.5 °F 48% 29.90 in 10.0 mi SSE 11.5 mph 17.3 mph N/A   Clear
11:15 PM 75.4 °F 54.0 °F 47% 29.91 in 10.0 mi South 12.7 mph 18.4 mph N/A   Clear
11:35 PM 75.7 °F 53.8 °F 46% 29.90 in 10.0 mi South 12.7 mph 20.7 mph N/A   Clear
11:55 PM 75.9 °F 53.6 °F 46% 29.91 in 10.0 mi South 15.0 mph 23.0 mph N/A   Clear